Theta_e
339 341 343 344 346 347 347 347 347 348 347 348 347 345 347 347 348 347 348 348 348 348 346 345 341 340 343 345 347 346 347 346 346 346 345 345 344 343 340 339 339 339 341 341 342 342 341 341 342 342 340 338 338 338 336 336 336 336 337 337 337 337 337 338 338 338 338 338 338 337 337 336 335 335 335 337 337 336 336 335 334 331 332 334 336
339 341 343 345 346 347 347 347 347 347 348 348 348 347 347 347 347 347 347 347 347 345 342 340 340 341 340 341 343 344 344 344 344 345 345 344 344 344 342 341 341 340 341 340 341 341 341 341 341 341 340 338 338 337 336 336 336 335 335 336 336 336 337 337 338 337 337 337 337 338 336 336 336 335 335 336 337 337 336 336 336 332 332 335 335
341 341 344 345 346 347 347 346 346 346 347 348 347 347 347 347 346 346 345 344 343 343 343 341 341 341 342 342 343 344 343 343 343 344 343 342 342 341 340 339 338 339 339 341 340 340 340 340 341 341 339 338 337 336 336 336 334 335 335 334 335 336 337 337 338 337 338 338 336 335 334 336 335 335 335 334 335 336 336 335 335 335 332 335 335
340 342 344 346 346 347 347 346 346 346 347 346 347 347 347 347 347 346 345 344 344 343 342 341 342 344 344 344 342 341 340 341 342 343 342 342 340 339 339 338 338 339 340 339 339 339 340 340 341 341 341 338 337 337 336 334 334 333 333 335 336 336 337 337 338 338 338 337 336 333 333 334 334 334 334 334 335 335 335 334 334 335 335 335 336
341 343 345 346 347 347 347 346 345 345 346 346 346 346 347 346 345 345 344 343 341 339 339 339 339 340 342 342 339 337 341 342 342 340 340 340 339 338 338 338 338 338 338 339 339 338 339 339 340 340 340 339 337 336 336 334 334 333 333 335 336 337 337 338 338 338 337 336 335 334 332 332 334 334 335 334 334 334 336 336 336 334 333 334 335
341 344 345 345 346 348 346 346 344 343 345 345 344 344 347 345 344 343 342 342 341 339 340 339 341 343 342 339 339 339 341 340 339 339 339 338 338 338 338 337 338 338 339 339 339 339 339 340 339 339 339 338 337 336 335 334 334 332 333 335 336 336 337 338 338 337 335 335 335 335 333 333 332 331 335 334 334 335 334 335 337 336 334 334 336
342 344 344 345 346 347 345 345 343 343 342 343 342 342 342 342 343 342 341 341 339 337 339 341 344 344 341 341 341 342 343 342 341 342 343 342 340 339 339 339 339 339 339 338 338 339 338 338 339 338 338 337 336 336 335 333 333 333 334 335 335 335 336 337 336 335 333 334 336 337 334 333 333 332 333 333 334 333 334 337 337 337 336 336 336
343 343 344 344 345 345 344 345 343 342 341 340 342 341 340 340 340 340 340 340 338 337 340 342 343 345 343 342 340 339 339 339 341 342 341 338 337 336 338 338 337 338 337 337 338 337 338 338 338 337 338 337 336 336 335 333 333 333 335 334 335 335 335 335 334 332 332 333 336 338 337 335 335 335 333 334 335 338 337 337 337 337 337 337 335
341 343 343 343 345 343 343 344 342 341 340 340 341 340 339 339 339 339 339 339 339 339 340 344 346 346 344 342 341 340 339 337 341 340 338 336 338 338 336 336 336 337 337 337 337 338 337 337 337 338 338 337 336 335 335 334 333 334 335 335 335 334 333 332 330 329 331 333 334 336 338 336 337 335 332 334 336 337 338 337 337 337 337 335 335
341 341 342 344 346 340 342 342 341 340 340 339 339 338 338 339 339 338 338 339 339 337 344 347 347 346 345 344 343 341 340 340 341 339 337 336 336 335 336 337 336 337 336 336 337 337 338 337 338 338 338 337 336 336 335 334 334 334 334 334 334 333 332 329 327 326 328 332 334 336 337 337 336 337 332 335 338 337 337 335 336 335 335 335 336
340 341 342 343 345 340 343 343 343 342 339 339 338 337 338 338 338 338 339 339 339 338 343 347 346 345 345 344 344 343 341 340 339 336 336 336 336 335 335 335 335 336 335 336 337 337 337 338 337 336 336 337 336 335 334 333 333 333 333 333 333 332 331 328 324 324 326 328 332 333 335 336 337 337 334 335 337 338 336 336 335 335 336 336 336
340 341 342 344 344 340 342 342 342 341 339 338 339 339 339 337 337 338 339 338 338 338 340 347 346 345 344 344 344 343 340 339 339 339 339 339 337 337 337 337 336 335 336 336 336 337 337 337 336 336 336 335 334 334 333 333 333 333 334 333 333 331 329 326 323 325 326 326 329 331 333 335 335 336 338 335 335 337 336 335 335 336 336 336 337
340 340 342 344 344 339 341 342 341 341 341 341 339 339 339 337 336 338 338 338 338 338 339 343 344 344 344 344 344 342 340 339 338 338 338 337 338 337 336 335 336 336 336 336 337 337 337 336 335 335 335 335 334 334 334 333 333 333 333 332 331 330 328 326 325 326 326 327 327 329 331 334 336 336 337 337 335 335 336 336 336 336 336 336 336
339 340 341 343 343 342 338 339 339 341 342 342 342 341 339 338 337 338 338 339 339 339 340 344 344 343 343 344 343 342 340 339 338 337 337 337 338 337 337 337 335 336 336 336 336 336 336 335 335 336 335 335 334 334 334 334 334 334 334 332 330 329 325 324 324 326 327 327 328 329 330 333 337 336 337 336 336 334 335 336 337 336 336 336 335
339 340 341 342 342 342 339 336 338 339 340 340 340 341 337 336 338 340 341 341 341 340 340 341 343 343 343 343 343 342 340 339 338 338 338 337 337 337 337 337 337 336 336 336 336 335 335 335 335 335 335 335 334 334 334 334 333 333 333 332 329 328 323 323 325 326 326 327 327 329 331 334 337 337 336 337 335 335 336 336 336 336 335 335 335
340 340 342 342 342 342 341 339 335 334 337 337 337 338 339 338 339 340 341 340 340 339 338 338 339 342 342 342 342 342 340 339 339 338 339 337 337 336 336 336 336 336 336 336 335 335 334 334 334 334 334 334 334 333 333 333 332 332 332 330 329 327 323 323 326 327 327 328 327 328 331 334 336 336 336 336 337 335 334 336 336 335 335 335 335
340 341 341 341 342 341 340 340 336 332 331 333 335 335 338 341 342 342 341 341 341 339 338 338 339 340 341 342 342 341 340 339 338 338 338 336 336 338 337 335 336 336 336 335 335 334 335 334 334 334 334 334 334 334 333 332 332 331 330 328 328 326 322 321 326 326 327 328 327 329 331 334 335 336 337 337 336 335 335 336 335 335 335 335 335
340 340 341 341 341 340 340 338 337 336 337 334 332 334 337 341 341 340 341 341 341 341 342 342 342 341 340 340 341 341 340 339 339 339 339 338 336 336 337 336 336 335 335 334 334 334 334 334 334 334 334 333 333 333 332 332 332 331 329 328 326 323 323 321 325 325 326 327 329 330 331 333 334 335 335 335 336 335 335 335 335 335 336 335 334
339 340 341 340 339 339 338 337 335 335 335 336 337 337 331 336 337 338 338 339 339 339 339 338 339 340 338 337 337 336 336 336 337 336 335 335 334 332 335 337 335 335 335 334 334 334 333 333 333 332 332 333 333 333 334 333 331 330 328 326 322 320 318 322 325 326 327 328 329 330 331 332 333 335 334 336 335 335 334 334 335 335 335 334 334
336 339 340 340 339 338 337 335 335 335 335 335 335 336 331 330 333 334 335 336 336 336 335 333 332 332 332 332 330 333 331 333 329 335 332 335 332 332 331 335 334 334 334 334 334 333 333 333 332 333 334 332 331 330 328 330 330 328 326 324 321 318 327 326 324 326 327 327 328 329 330 332 334 335 334 334 335 334 333 333 335 335 335 335 334
334 338 339 339 338 337 336 335 335 335 336 334 333 333 332 330 330 329 331 332 333 332 330 325 324 324 327 324 326 331 332 331 330 331 324 329 325 326 331 335 334 333 333 333 333 333 332 332 333 334 334 330 324 322 321 324 325 326 323 320 317 328 325 325 325 325 326 326 327 329 329 332 334 333 332 334 334 334 333 334 334 334 335 334 333
331 335 338 338 337 336 335 334 334 335 336 335 333 332 331 329 333 335 335 332 329 327 331 333 329 332 322 328 330 328 329 329 329 328 328 328 327 324 329 333 334 333 333 333 333 333 333 334 334 333 331 326 318 320 320 317 318 321 318 316 326 326 324 324 326 325 326 327 326 326 330 332 333 334 332 333 333 333 333 333 334 334 334 333 332
329 332 336 337 336 336 335 333 333 334 335 335 333 332 331 331 332 332 332 327 332 333 332 332 330 329 329 328 327 328 328 328 327 327 326 320 325 322 326 330 331 329 331 330 329 329 329 330 329 328 326 318 318 319 318 320 324 317 317 325 327 325 324 325 326 325 325 324 325 325 331 332 333 334 334 333 333 332 333 333 334 333 332 331 330
330 331 334 337 337 335 334 334 333 334 335 335 333 332 332 331 330 330 330 331 331 330 330 329 329 328 328 326 326 326 327 327 326 326 326 327 326 322 322 324 326 325 324 325 323 322 322 321 321 320 317 316 317 316 319 321 323 324 326 327 327 325 324 324 325 324 326 326 327 324 329 332 334 333 333 333 333 333 333 333 333 332 331 330 328
331 334 334 335 335 334 334 334 333 333 334 333 331 331 332 330 330 330 329 330 330 329 330 328 327 327 326 325 325 325 326 326 326 326 326 326 326 327 328 329 328 327 322 325 322 321 320 320 318 315 315 317 318 317 319 325 325 324 325 325 326 326 326 325 324 323 326 327 329 323 326 330 332 332 333 333 333 334 333 332 331 331 330 328 327
331 332 332 334 334 334 334 333 331 331 332 332 332 332 331 331 330 329 329 329 329 328 328 328 326 326 325 324 324 325 325 325 325 325 324 325 325 325 325 326 325 325 324 324 322 321 320 319 318 318 317 315 316 317 317 321 324 325 324 324 324 325 326 324 323 324 324 327 329 320 324 329 329 329 329 333 332 333 333 331 329 330 329 328 327
330 331 334 333 335 334 333 333 330 330 331 332 332 332 331 331 331 329 328 328 328 327 326 326 326 325 324 322 324 324 324 325 324 324 324 324 324 324 323 323 324 323 323 322 322 321 319 319 318 317 315 315 317 319 320 320 321 323 324 324 323 324 325 324 324 325 325 325 322 314 324 328 328 327 328 328 331 332 332 332 329 330 329 327 326
330 330 334 332 334 334 333 332 331 329 329 331 331 330 331 330 330 329 328 327 327 327 327 326 325 324 323 322 323 324 324 323 323 323 323 322 323 323 323 322 322 322 322 321 321 321 319 318 317 317 316 317 319 323 322 321 321 321 323 324 323 324 325 324 324 325 325 324 324 318 317 326 326 326 327 326 328 329 331 331 329 330 328 326 325
329 330 332 333 333 334 333 331 331 328 329 330 329 330 330 330 330 328 328 326 326 327 327 326 325 324 323 322 322 323 323 323 322 323 323 322 322 322 322 321 321 321 320 321 320 319 318 317 317 318 317 319 321 323 322 322 321 321 321 323 323 323 324 324 324 324 324 323 323 321 317 322 325 325 325 325 326 329 328 330 329 329 327 325 325
329 330 332 333 333 335 334 331 331 329 328 329 329 329 329 328 329 328 328 326 327 327 325 325 326 324 323 322 321 324 323 323 322 322 322 321 321 321 321 321 321 321 320 319 320 318 318 316 315 316 318 321 323 323 320 322 322 321 321 323 324 324 323 323 324 323 322 321 322 323 315 318 323 324 325 325 326 331 332 328 328 327 326 325 325
330 330 331 333 334 333 334 333 332 329 329 327 328 328 328 328 328 328 328 327 327 327 325 325 325 324 324 323 323 323 323 323 322 322 321 321 321 320 319 320 319 320 320 319 319 317 316 316 318 321 322 322 323 321 320 321 322 323 322 323 324 322 322 323 324 322 320 322 322 321 323 315 318 321 322 324 325 327 329 331 327 326 326 326 324
328 329 331 333 334 334 333 334 333 330 328 327 326 327 327 327 328 328 327 327 327 327 326 325 324 324 324 323 323 322 322 322 322 322 321 320 320 319 319 318 318 319 318 318 317 317 316 317 317 319 320 320 321 320 319 320 323 323 322 323 323 322 323 323 323 322 321 322 323 322 322 322 313 317 318 321 324 326 327 329 327 326 325 324 324
328 329 330 330 331 333 334 334 333 331 328 327 326 326 326 326 326 327 327 327 327 326 326 325 325 325 324 323 323 323 322 322 322 321 320 320 320 319 319 318 319 320 318 317 317 317 316 316 318 318 319 319 319 322 319 317 319 323 322 323 321 322 321 322 323 322 321 321 321 321 321 322 321 313 312 315 320 325 327 327 326 326 325 324 324
326 327 328 328 330 332 333 334 334 332 330 330 327 326 325 325 326 326 326 326 326 325 325 325 325 325 324 323 323 323 322 323 323 322 322 322 321 321 322 321 322 321 320 318 317 318 318 318 321 320 319 320 322 322 321 322 322 321 321 322 320 322 321 321 322 322 321 320 321 319 319 318 318 320 319 312 314 319 325 327 326 325 323 324 324
325 325 325 327 328 330 330 331 331 332 330 330 328 327 326 325 324 325 325 325 325 325 325 325 325 325 324 323 323 323 322 323 323 323 322 322 322 322 321 322 323 321 321 320 321 320 320 321 321 321 321 320 320 320 320 321 322 323 324 321 322 320 318 320 321 321 320 320 319 318 317 317 317 318 318 320 312 313 318 326 326 324 323 323 323
323 324 325 325 326 328 329 329 330 331 331 330 330 329 328 327 325 322 324 324 324 324 324 324 324 324 324 323 323 323 322 323 323 323 323 322 322 322 323 323 322 322 322 320 320 321 321 320 320 321 322 322 320 321 320 320 321 321 323 320 321 318 319 319 320 321 320 319 319 317 316 317 317 317 314 319 319 316 314 320 324 324 325 324 323
322 323 323 323 324 325 326 327 328 329 330 330 330 331 330 328 327 326 324 324 324 324 324 324 324 323 323 323 324 322 322 323 323 323 323 323 322 322 323 323 322 322 322 320 320 322 321 320 320 319 321 323 321 320 320 319 320 320 320 319 320 319 318 319 320 321 320 318 318 316 315 315 315 309 314 316 318 318 313 314 318 318 319 321 323
322 322 322 322 323 323 324 326 327 328 329 330 330 330 330 329 328 327 325 324 324 325 325 324 323 323 323 323 324 323 322 322 323 323 322 323 323 323 324 323 322 322 322 321 321 321 320 320 321 320 319 319 320 320 320 320 318 319 320 319 319 318 318 318 319 315 319 318 317 315 314 314 314 313 311 313 314 315 317 314 313 312 312 317 321
322 322 321 322 322 322 322 323 324 326 327 329 329 329 330 329 328 326 324 324 324 325 325 323 324 324 323 324 323 322 321 322 323 322 321 322 322 322 323 323 322 321 321 320 320 319 319 319 319 320 316 318 320 321 321 320 319 318 318 319 318 317 317 316 316 317 318 318 317 315 313 312 313 312 310 310 310 310 312 313 315 316 317 313 320
323 322 321 321 321 321 321 322 322 324 325 326 327 326 326 325 323 322 322 322 323 322 323 323 324 324 324 323 323 322 323 322 323 323 322 322 321 322 322 322 321 321 320 319 319 319 318 318 317 318 318 316 314 316 315 316 317 317 318 319 318 317 314 314 315 317 318 318 317 315 312 311 312 312 308 307 306 308 311 312 312 314 315 313 313
323 322 321 321 321 320 320 320 321 322 322 322 323 323 322 322 322 322 321 322 321 322 321 322 323 324 324 324 323 323 323 322 322 323 322 320 322 323 322 322 322 320 320 321 322 321 321 321 320 318 318 317 317 315 314 316 317 317 319 317 318 316 312 312 314 317 317 318 317 315 313 310 311 312 309 307 306 307 308 309 310 310 311 314 313
321 322 321 321 321 321 320 320 321 321 322 322 322 322 323 323 322 322 323 323 322 320 320 322 322 323 323 323 323 324 323 323 322 323 323 323 322 321 321 322 321 320 321 322 321 319 320 319 318 317 315 318 318 317 315 317 314 314 314 316 317 319 314 310 311 313 314 316 316 315 312 310 310 312 309 306 306 305 304 306 307 307 308 309 311
322 321 322 322 321 321 320 320 321 321 321 322 322 321 322 323 323 323 323 323 324 323 323 323 323 323 323 323 323 323 323 323 323 322 322 322 322 322 322 322 322 321 319 319 319 319 319 319 318 318 317 314 316 314 315 318 319 312 313 312 311 311 315 313 312 311 312 314 314 314 312 309 309 311 309 306 306 304 304 304 304 304 305 305 306
320 321 322 321 321 321 321 321 320 321 321 321 320 323 322 323 323 323 322 323 321 322 322 323 322 322 321 322 323 323 323 323 323 322 322 323 323 322 323 322 322 322 321 320 319 319 319 319 318 318 319 317 314 315 315 318 320 315 312 312 311 309 308 312 315 315 310 312 312 313 313 309 308 309 308 306 305 304 304 303 302 302 302 302 302
320 320 321 322 322 322 322 321 321 321 321 321 321 322 321 320 321 319 319 319 319 319 320 320 320 320 321 321 321 322 322 322 323 323 322 322 323 323 323 323 322 322 321 320 320 320 320 320 319 318 317 317 317 318 315 316 318 321 320 312 310 306 307 313 308 313 307 310 309 310 309 310 307 306 307 306 306 304 303 301 300 300 299 298 298
319 320 322 322 323 323 322 322 322 321 321 321 321 321 320 320 319 318 317 317 317 318 317 318 317 317 318 321 322 322 322 322 323 323 322 321 322 322 322 322 322 322 320 321 322 322 321 320 319 320 318 319 319 318 317 313 316 318 320 321 319 314 313 309 310 310 307 308 307 308 309 308 309 306 306 306 306 304 301 300 299 298 297 296 295
319 321 321 322 322 323 323 322 322 321 321 321 321 320 321 321 320 320 320 319 318 319 321 321 320 320 321 320 321 322 322 322 322 322 323 322 322 322 322 322 322 322 321 320 320 320 321 321 321 319 320 319 318 316 317 318 314 314 316 318 319 319 319 314 310 307 307 307 305 306 306 306 306 306 305 304 305 305 303 301 299 297 296 295 294
318 320 321 321 321 322 323 322 322 321 321 321 321 320 320 320 320 320 319 320 319 320 320 320 321 321 320 320 320 321 321 322 322 322 322 322 321 322 322 322 321 322 321 320 321 321 321 322 321 321 320 320 319 317 317 319 316 316 314 314 315 317 318 317 315 312 311 308 308 304 303 304 304 304 305 306 304 304 305 303 300 298 296 295 294
317 318 320 321 321 322 322 323 322 322 321 321 320 320 320 321 320 320 319 319 321 321 320 319 319 319 320 320 319 320 319 320 322 322 322 322 320 321 322 321 321 321 320 321 321 321 321 321 319 318 318 318 319 319 319 319 318 318 316 314 315 315 316 315 314 312 309 308 309 311 308 300 300 302 304 305 306 305 304 304 303 300 298 296 295
315 318 319 320 321 321 321 321 322 322 322 321 319 320 320 319 320 319 319 320 320 319 318 318 318 318 318 318 319 319 319 319 320 321 321 322 322 321 321 321 321 321 319 320 320 320 320 320 321 320 319 319 319 319 318 320 321 321 320 319 314 313 313 312 311 311 310 310 307 307 309 307 307 309 306 304 304 305 304 303 302 302 301 298 296
312 315 317 319 320 320 321 320 321 322 322 321 320 319 320 320 320 320 320 319 320 319 317 318 317 316 317 318 318 318 319 319 319 319 321 321 321 321 321 321 322 321 319 320 319 320 320 320 321 321 319 319 319 319 318 319 320 320 320 320 319 317 316 314 313 312 311 309 307 307 310 312 311 312 313 307 305 305 305 304 302 302 302 301 299
Wind_Speed
4 5 4 3 5 6 7 8 10 13 12 14 16 13 12 14 13 13 14 15 15 15 14 13 12 11 12 14 14 14 15 15 16 16 15 15 16 16 15 15 14 15 16 16 15 16 16 16 16 17 19 18 17 17 17 17 17 17 17 17 17 18 18 18 18 17 16 17 17 18 17 17 16 16 17 17 16 12 10 11 10 13 12 14 17
8 4 4 4 6 7 7 8 9 11 12 13 14 14 13 14 13 13 13 14 14 14 13 12 12 11 11 12 13 14 14 14 15 15 15 15 16 17 16 14 15 15 16 16 15 15 16 16 16 17 18 18 18 18 18 17 17 17 17 17 17 17 17 17 16 16 16 15 14 15 15 16 17 16 16 17 18 16 11 12 11 12 10 15 15
7 5 4 5 6 8 8 9 9 10 12 12 13 13 13 13 13 12 12 11 12 12 12 11 11 12 12 12 12 12 12 13 14 14 15 15 15 16 15 13 13 15 16 16 16 15 15 15 15 16 18 17 17 17 17 16 16 16 17 17 17 16 16 16 16 15 15 15 14 12 11 12 17 17 16 16 16 16 12 15 15 13 11 15 14
8 5 6 4 3 4 8 9 8 11 10 11 13 13 12 12 12 13 12 12 12 11 10 11 12 12 12 12 12 12 13 13 13 13 14 14 14 14 14 13 14 14 16 15 16 16 15 15 16 16 17 17 16 16 16 15 15 15 15 16 16 16 16 16 15 15 14 14 12 8 5 5 10 16 16 16 15 15 11 13 14 15 14 13 13
7 5 6 6 4 4 8 8 9 10 10 10 12 12 13 13 12 12 13 13 11 8 9 10 10 11 11 11 11 10 12 12 12 13 12 13 14 14 13 13 13 15 15 15 15 15 16 15 15 16 16 16 15 16 15 15 15 15 15 16 16 16 16 15 14 13 13 12 12 7 6 7 5 14 14 14 13 9 9 9 10 12 12 12 12
8 6 5 4 4 4 8 9 10 10 11 10 9 10 12 12 11 11 11 12 10 9 9 9 11 12 12 11 11 12 12 12 12 12 13 13 14 14 14 14 14 14 15 14 15 15 15 15 15 15 15 15 15 15 15 15 15 16 15 15 15 16 15 14 14 13 12 11 9 6 7 8 6 8 13 13 13 9 11 13 14 13 12 12 14
9 6 4 4 3 4 8 10 10 9 9 11 9 9 9 8 9 11 11 10 9 6 9 9 11 11 12 11 11 13 11 12 13 14 15 15 14 14 13 13 13 13 14 13 14 14 14 15 14 15 14 14 15 15 14 14 15 15 14 14 15 15 14 13 12 12 11 6 6 6 5 6 6 4 13 13 12 11 13 14 12 12 12 13 13
7 6 5 4 3 5 9 10 10 10 9 9 10 10 9 9 7 7 9 10 8 7 9 10 10 11 12 12 10 10 11 13 13 14 14 13 12 13 13 12 12 13 13 13 13 13 14 14 14 14 14 14 13 13 13 13 13 14 13 13 13 13 12 11 11 10 9 5 5 5 5 5 5 4 12 11 11 13 12 12 11 11 12 12 11
9 8 5 4 4 6 7 8 10 10 9 10 10 9 9 8 8 8 7 9 8 6 9 9 10 10 12 11 11 11 11 11 13 13 12 12 14 13 12 11 12 12 12 13 13 13 13 13 13 14 14 13 13 12 12 12 12 12 11 12 12 11 11 10 10 8 6 4 6 6 7 6 5 4 8 10 11 11 12 11 9 11 12 11 10
9 6 4 4 4 7 8 9 10 10 10 9 8 8 8 9 8 7 6 10 8 6 10 10 10 9 11 12 12 12 12 12 13 13 11 11 11 12 13 12 11 11 12 12 12 13 13 13 13 13 13 13 12 12 12 11 11 11 11 11 11 11 10 9 8 7 5 5 6 7 8 10 7 6 8 9 11 10 11 9 10 10 9 9 10
8 7 4 4 5 8 8 9 9 10 11 10 9 8 8 9 8 8 8 9 9 7 9 9 10 10 11 13 12 13 12 12 11 11 11 11 11 11 11 11 11 11 11 11 12 12 12 13 12 12 12 12 11 11 11 11 11 11 10 10 11 10 10 8 6 4 4 5 7 6 8 10 7 8 9 10 10 10 7 10 9 10 10 9 11
9 8 4 4 6 8 8 8 8 10 10 10 11 10 10 9 8 9 9 8 9 7 8 11 11 10 10 11 12 13 12 11 11 11 11 12 11 12 11 11 11 11 11 11 11 11 11 12 12 12 12 12 11 11 10 10 10 9 9 10 10 10 9 8 5 4 5 5 6 5 6 7 8 7 11 10 9 10 11 11 11 12 11 11 11
9 9 5 4 5 7 8 7 7 7 7 8 10 10 10 9 7 8 9 9 8 7 7 9 9 9 10 12 12 12 11 11 11 11 11 11 11 11 11 10 11 10 10 10 10 10 11 11 11 11 11 12 11 11 10 10 9 9 9 9 9 9 8 8 4 5 5 5 5 5 5 5 6 8 8 9 10 11 11 12 12 12 12 11 12
9 8 6 5 4 7 8 8 7 5 5 7 8 8 10 9 9 9 8 6 6 6 9 8 7 8 10 10 11 11 11 11 11 10 10 9 10 10 10 11 10 10 10 10 10 10 10 10 10 11 11 11 10 10 10 10 9 8 8 8 8 8 6 4 4 4 5 5 5 6 5 5 7 10 10 9 9 9 11 12 12 11 11 11 12
8 8 8 5 5 6 9 9 6 4 6 7 6 6 8 6 7 9 10 8 7 6 7 8 8 8 9 9 11 11 11 10 10 10 10 9 10 10 9 10 10 10 9 9 9 9 9 10 10 10 10 10 10 10 10 10 9 9 8 7 7 6 5 3 3 3 4 4 4 5 5 4 10 10 9 9 9 9 11 11 10 11 10 10 11
7 7 8 7 6 6 6 7 7 6 7 7 5 4 5 6 4 9 7 7 7 6 4 6 7 8 8 8 8 10 11 11 10 9 7 8 9 9 9 9 9 9 9 8 8 8 9 9 9 9 9 9 10 10 9 10 10 9 9 7 6 5 5 3 2 3 3 3 3 4 4 5 12 12 9 9 10 9 10 11 10 10 11 10 12
7 7 8 8 6 6 6 5 6 7 7 6 5 4 3 4 4 8 7 6 5 6 5 4 6 6 7 8 9 9 9 10 10 9 7 8 8 7 8 9 9 8 8 8 8 9 9 9 8 8 8 8 8 9 9 10 10 9 8 8 6 5 5 4 3 3 3 4 2 3 4 5 11 12 10 9 9 9 10 10 9 9 10 11 12
7 7 8 7 5 6 6 5 6 5 5 4 4 6 5 6 8 6 5 5 4 4 6 8 8 9 8 6 8 9 9 8 8 8 8 8 7 7 6 8 8 8 7 7 8 8 8 8 8 7 7 7 8 8 9 9 9 8 7 6 6 5 4 3 3 2 3 3 3 2 3 7 12 11 9 8 8 9 10 9 9 9 10 11 11
8 7 8 9 8 7 6 5 6 5 5 4 3 6 7 7 7 6 5 6 8 8 9 9 8 7 7 7 7 7 7 7 7 8 9 8 8 8 6 5 7 7 6 6 7 7 8 7 7 7 7 7 7 7 8 8 8 7 7 6 6 5 3 1 2 1 2 2 3 3 4 9 12 12 10 9 7 9 9 8 9 9 9 11 13
9 7 8 8 7 8 6 5 5 5 5 5 5 5 6 8 6 6 6 7 8 8 8 8 8 7 7 8 8 7 6 6 8 7 8 8 7 6 6 4 5 6 5 5 5 6 6 6 6 6 7 7 7 7 7 7 7 6 6 4 4 3 2 1 0 0 0 2 3 3 5 11 12 10 8 7 7 8 7 8 8 9 10 12 14
8 8 7 8 7 8 8 5 6 6 6 6 5 5 4 7 6 7 7 7 8 9 8 7 7 7 7 7 7 5 4 4 5 4 6 5 6 7 6 4 5 4 4 4 5 5 5 5 5 6 7 8 8 7 8 8 8 7 6 4 3 3 2 2 0 1 2 3 3 3 8 10 11 8 7 6 6 7 6 7 8 9 11 13 13
10 8 7 9 8 7 10 7 6 7 6 6 4 4 4 4 4 4 4 5 6 7 6 5 4 4 6 5 4 4 4 4 4 5 4 4 5 5 4 5 6 5 4 5 6 6 6 5 7 7 8 8 8 5 5 6 7 7 6 5 3 2 2 2 1 1 2 2 2 4 9 10 10 9 6 5 5 6 5 7 8 10 12 12 12
10 9 8 8 10 7 8 10 7 7 7 7 5 5 6 5 4 5 4 5 5 6 4 5 4 4 4 4 4 4 4 4 3 4 4 5 4 5 5 5 6 7 7 6 6 6 7 7 6 6 6 6 3 2 2 2 3 4 3 3 2 2 1 1 1 0 1 1 2 5 9 10 10 8 6 4 5 6 6 7 9 11 11 11 11
9 9 10 6 9 8 9 10 9 8 7 6 7 6 6 5 5 5 5 5 5 4 4 3 3 4 4 4 4 4 4 4 5 6 5 3 3 4 5 5 6 6 6 3 4 4 4 3 3 4 3 2 1 1 1 1 1 1 1 1 1 1 1 1 1 0 1 0 1 6 7 9 11 8 5 4 5 5 5 7 10 10 10 11 11
8 6 8 7 9 9 10 10 7 8 9 8 8 7 7 6 6 6 5 5 5 4 4 4 3 3 4 4 4 4 4 3 3 3 2 2 2 2 2 2 1 1 3 1 2 2 2 2 2 2 2 1 1 1 1 1 1 1 1 1 1 1 1 0 1 0 1 1 2 3 4 8 9 7 6 4 5 6 5 7 8 8 10 10 11
8 9 11 8 8 8 10 8 7 8 9 9 9 7 7 7 6 6 7 5 6 5 4 4 4 4 4 4 5 5 4 3 3 3 2 2 2 2 2 1 2 2 1 1 2 2 2 2 2 2 1 1 1 1 2 1 2 1 1 1 1 1 1 1 0 1 2 2 0 2 3 6 8 8 9 5 5 5 5 4 5 7 8 9 10
9 11 9 12 9 9 9 7 9 9 10 9 8 7 7 6 6 6 7 7 6 6 5 4 4 5 5 5 5 5 4 4 4 4 4 3 3 3 2 2 2 2 2 2 3 3 2 2 2 2 1 1 1 1 1 1 1 1 1 1 1 1 1 1 1 2 2 1 1 5 2 3 7 8 8 9 5 3 2 3 6 7 8 8 9
9 12 9 11 9 10 9 9 9 9 9 8 8 8 7 7 6 6 6 6 6 6 6 5 5 5 5 5 5 5 5 5 4 4 4 4 4 3 3 3 3 3 2 3 4 3 2 2 2 2 2 1 2 1 1 1 1 1 2 2 1 1 1 1 1 2 1 1 1 1 6 2 4 6 8 9 8 4 2 4 6 7 8 9 8
12 11 9 10 12 10 9 10 9 9 8 8 8 7 7 7 6 7 7 6 6 7 6 5 5 5 5 6 6 6 5 4 5 5 4 5 4 4 3 3 3 3 3 4 3 4 3 2 2 2 1 2 2 1 1 2 1 0 1 2 2 1 1 1 2 1 2 1 1 1 2 4 3 5 7 8 8 7 5 4 7 7 7 7 8
12 12 10 10 11 11 11 10 10 9 8 9 8 7 7 8 8 7 6 6 6 6 6 5 5 6 6 6 7 6 6 6 5 5 5 5 5 4 4 4 4 4 4 4 4 3 3 3 2 2 2 2 2 1 1 2 2 1 1 2 1 1 1 2 2 2 2 1 1 1 2 2 2 4 6 7 8 8 8 6 8 7 7 7 8
11 13 12 10 9 11 10 11 10 9 8 9 10 9 8 8 8 7 7 8 7 6 6 6 6 6 6 7 7 7 7 6 6 6 5 5 5 5 5 4 4 5 5 5 3 4 3 3 3 2 1 1 2 1 1 2 2 2 1 2 1 1 1 2 2 2 2 2 2 3 3 3 1 2 4 6 7 8 8 9 7 7 7 9 8
14 13 11 10 9 12 13 12 10 10 9 9 7 10 10 9 8 7 7 8 9 8 7 6 6 6 6 7 7 7 6 7 7 6 7 6 6 6 5 5 6 4 4 4 4 4 4 4 3 2 2 2 2 2 1 2 2 2 2 2 1 1 1 2 2 3 3 3 4 4 3 2 2 1 2 5 6 7 9 9 6 9 9 8 8
11 12 14 10 13 13 10 11 11 11 11 9 9 9 9 9 9 9 8 7 8 9 9 9 7 7 6 7 7 8 7 7 7 8 7 7 6 6 6 6 6 5 4 5 5 5 4 3 3 2 2 2 2 3 1 1 3 3 2 2 1 2 1 2 2 3 4 4 3 3 3 2 2 2 1 3 5 6 8 9 7 9 9 9 9
12 9 12 15 12 7 7 7 10 12 14 10 9 9 9 9 8 8 8 9 8 9 10 9 8 7 7 8 8 8 7 7 7 7 7 6 6 6 6 6 5 5 4 5 5 4 4 4 4 2 3 3 4 3 2 3 3 2 3 2 1 2 1 2 3 4 3 4 4 3 3 2 2 2 2 2 3 5 8 9 7 9 8 9 9
10 10 16 17 15 12 8 9 9 11 11 13 12 9 9 9 8 8 9 11 9 9 10 9 9 8 7 7 8 8 8 8 8 8 7 6 6 6 6 5 3 4 5 5 5 4 4 5 4 5 3 3 4 3 3 4 4 4 3 1 2 1 1 3 3 3 4 4 3 3 3 3 3 3 2 2 0 3 6 6 9 10 11 10 10
15 13 13 11 13 15 13 11 10 10 10 11 10 10 9 9 8 9 9 10 9 10 9 11 10 8 8 7 8 8 8 9 9 8 7 7 7 7 5 3 4 4 4 5 4 5 5 5 5 5 5 5 4 5 3 4 3 5 3 2 2 2 2 3 4 4 4 3 4 5 4 4 4 3 3 2 2 1 4 5 5 4 3 6 11
12 11 11 12 14 14 13 15 14 12 10 10 11 11 9 10 11 9 10 9 9 9 9 9 8 8 8 7 8 8 9 9 9 9 8 8 7 7 4 5 4 5 4 5 5 5 6 5 6 6 5 5 4 5 3 3 4 4 3 3 3 3 3 4 4 4 3 5 5 5 4 3 1 2 2 2 2 2 3 3 2 2 3 2 2
11 11 11 11 13 11 12 14 13 14 14 13 10 10 9 9 8 9 9 9 10 9 8 8 8 8 8 9 9 8 8 9 10 9 8 8 5 5 5 5 5 5 4 6 6 5 6 6 7 5 6 6 5 5 5 3 2 4 4 4 4 3 4 4 4 3 4 5 5 6 5 4 4 3 1 1 1 2 3 4 4 3 3 3 1
8 11 10 10 8 9 9 12 13 14 14 12 10 10 9 8 7 7 8 9 8 8 8 7 8 8 9 9 9 7 7 6 8 9 8 8 8 7 6 6 5 6 6 7 7 6 6 6 7 7 3 6 7 5 5 3 3 3 5 5 4 5 4 3 3 4 5 6 6 5 3 5 4 3 2 2 2 3 3 2 3 3 3 6 4
9 9 11 10 10 9 8 8 9 10 10 11 10 9 8 8 7 6 8 8 8 7 7 8 8 9 10 9 9 7 6 6 7 8 10 8 9 8 7 6 6 7 7 7 8 7 8 8 8 7 7 5 5 6 4 3 4 5 7 6 5 6 6 5 6 5 5 5 5 4 5 3 3 3 3 4 4 5 5 5 4 4 4 6 7
11 11 11 11 11 10 10 12 8 8 8 8 10 10 10 8 7 10 10 7 8 8 8 8 10 10 11 11 9 9 9 9 7 8 10 8 7 6 7 7 7 8 8 9 7 6 6 5 4 5 7 7 7 5 4 3 4 7 5 6 6 5 6 6 8 6 5 4 4 5 4 4 5 5 6 5 5 4 4 4 5 4 5 4 6
13 13 14 14 12 11 12 10 8 9 10 9 9 10 10 10 9 10 9 9 9 9 10 10 11 10 10 10 10 10 10 9 9 8 7 8 8 9 9 9 9 8 8 8 8 7 6 7 6 5 5 7 7 3 5 5 4 6 7 6 4 4 5 5 7 8 7 6 6 6 5 6 6 7 6 5 5 5 5 5 4 5 5 5 5
14 15 15 13 13 11 10 10 9 9 9 10 9 10 8 9 9 6 9 8 8 8 8 8 8 10 9 10 9 9 9 10 10 10 9 10 9 7 8 7 9 8 7 8 8 8 8 9 8 8 6 4 6 4 6 9 6 3 3 3 6 4 1 2 4 8 8 6 5 7 6 6 8 7 6 5 5 6 5 5 6 5 5 6 5
12 12 12 14 13 12 10 11 10 10 9 11 13 9 9 10 9 8 7 7 6 7 8 7 7 7 8 9 9 8 9 10 11 11 9 10 11 10 7 8 9 8 9 9 9 10 9 9 8 9 9 8 6 6 7 7 6 4 6 6 3 1 7 4 6 2 4 6 7 9 7 7 6 6 5 7 7 6 6 6 7 7 6 6 5
14 14 14 14 12 16 15 13 11 12 10 11 11 8 8 7 7 5 3 4 2 3 5 9 8 7 7 9 10 11 11 9 8 9 11 11 11 10 10 8 9 9 9 10 10 11 10 10 10 9 10 10 11 9 6 8 9 9 8 2 4 4 6 3 2 4 2 3 8 8 7 7 7 7 6 7 5 6 6 7 7 6 7 6 5
14 15 14 15 15 14 14 12 10 10 11 12 11 9 9 8 8 9 10 9 10 9 11 10 8 9 10 9 9 10 11 11 10 11 11 9 11 11 10 10 10 9 10 11 10 8 10 11 11 11 11 12 11 8 7 6 10 11 12 10 7 7 4 2 1 5 1 4 2 5 7 7 6 6 6 6 7 7 6 7 6 7 6 5 5
16 12 12 15 15 14 14 14 12 11 12 12 13 11 9 9 11 11 10 10 10 10 8 7 8 7 7 9 9 9 11 11 10 10 10 11 10 9 11 11 10 10 9 9 10 11 10 11 9 10 11 9 9 11 12 9 6 8 9 10 11 9 8 6 6 1 5 1 3 5 6 6 7 7 7 8 8 7 7 7 7 7 6 5 5
14 12 14 14 15 16 15 15 13 12 11 11 12 13 10 9 11 12 11 10 11 12 9 8 8 7 8 9 8 8 9 10 11 11 11 10 11 11 10 11 11 11 9 10 12 11 9 9 10 11 10 9 11 11 12 11 10 8 8 11 11 10 11 10 9 10 9 8 5 1 4 6 5 7 8 9 9 10 9 7 7 7 6 6 5
12 14 15 14 14 14 15 13 14 12 11 14 12 13 14 12 11 9 10 11 12 9 6 7 8 8 9 7 8 7 8 9 11 11 11 12 10 11 12 11 10 11 10 11 11 10 11 11 10 10 11 10 11 11 11 10 10 11 6 9 9 10 9 9 8 6 7 7 10 8 7 1 3 7 8 8 8 8 9 8 6 6 6 6 6
11 12 12 11 11 11 13 14 14 12 12 14 14 14 15 13 11 12 15 13 10 8 7 8 8 8 10 9 8 7 8 9 10 11 11 11 11 11 11 12 12 11 9 10 10 11 11 11 11 12 11 12 10 10 12 10 9 9 8 6 7 5 7 6 6 7 8 9 10 7 5 7 8 6 6 8 10 9 8 5 6 7 7 7 7
9 10 10 10 10 11 12 14 15 12 12 14 14 16 14 13 13 14 16 16 13 11 9 10 8 7 9 8 8 7 8 9 8 10 11 11 11 11 11 12 11 9 9 10 11 11 11 12 11 10 11 12 10 10 10 10 9 8 10 9 10 8 8 7 8 7 9 7 6 7 7 8 11 11 8 8 8 8 7 6 8 8 8 9 8
Wind_Direction
170 152 152 194 165 136 123 116 116 117 119 116 118 124 123 113 111 107 103 96 97 99 100 102 101 104 109 100 97 97 97 97 94 89 87 86 85 83 83 84 88 88 86 82 78 75 77 79 84 83 77 72 71 72 71 71 72 71 71 70 68 63 57 52 49 49 55 57 62 70 69 74 70 69 67 72 77 77 72 67 61 66 62 57 56
160 159 148 169 152 135 125 116 118 109 111 114 120 124 116 110 108 106 99 98 99 100 102 103 104 105 99 99 98 94 95 92 92 92 90 88 86 84 84 86 87 88 86 82 78 76 76 78 82 81 76 74 72 71 71 72 72 72 73 71 66 60 55 53 49 46 47 46 42 36 61 72 71 69 70 69 69 66 59 63 61 63 63 64 57
140 138 153 165 144 140 127 120 120 114 109 114 116 115 112 109 107 99 100 102 103 105 104 103 104 103 100 97 98 95 95 97 93 89 87 84 81 83 86 89 94 92 87 83 80 78 77 80 82 79 79 76 75 75 74 73 75 76 75 74 68 59 55 52 48 44 42 41 33 29 15 51 73 71 72 69 68 65 59 57 56 58 61 61 64
139 142 152 162 147 135 127 125 126 111 105 114 116 117 112 110 106 103 103 101 101 105 111 108 105 103 105 105 99 100 100 96 92 89 87 87 86 86 89 93 94 94 88 84 80 76 77 82 84 84 86 84 81 79 77 74 74 77 78 76 70 63 58 52 47 41 35 32 31 24 30 26 69 76 74 72 70 66 61 62 57 53 53 55 55
133 141 145 143 145 124 122 116 125 118 114 119 122 121 119 114 106 103 103 103 102 108 107 108 109 106 105 102 100 102 100 102 99 94 93 92 97 97 93 95 94 91 90 82 79 80 81 83 85 85 86 88 85 82 77 74 76 80 81 73 65 61 57 53 48 43 38 29 26 23 36 33 44 74 77 73 72 72 68 60 62 64 55 50 49
137 144 132 131 138 140 126 123 128 135 134 120 109 120 124 119 114 110 106 107 106 109 112 118 114 111 111 110 114 107 97 97 99 98 97 90 84 86 98 100 98 95 85 88 86 84 83 85 89 89 89 90 87 82 79 77 80 83 82 75 65 61 55 50 46 43 37 30 22 33 33 31 31 74 73 70 68 59 59 51 41 39 50 45 39
140 138 128 127 138 140 129 126 126 130 137 128 120 105 98 111 121 118 116 113 109 116 110 113 112 121 114 112 108 110 110 106 99 94 90 89 95 95 88 88 94 99 99 93 90 85 83 84 87 89 88 88 85 82 79 77 81 83 81 72 67 61 55 49 45 42 35 31 35 32 37 32 22 49 73 71 64 55 31 38 42 36 42 38 31
136 138 135 133 137 133 130 131 127 126 125 132 130 112 112 106 99 113 118 122 113 125 120 125 122 124 120 117 112 104 98 99 98 95 90 92 90 88 84 88 98 102 101 93 87 86 85 85 86 89 93 90 86 85 82 79 81 83 79 74 69 63 58 53 49 43 36 36 34 31 33 27 21 347 63 58 52 43 36 36 33 33 33 30 24
143 146 139 138 129 127 125 128 128 127 129 128 120 133 127 122 117 121 128 120 121 123 126 114 117 134 125 119 117 111 109 108 100 93 91 96 95 90 98 106 109 106 98 95 89 85 86 86 86 87 91 91 91 88 86 82 82 83 79 74 69 65 59 52 46 39 41 36 29 28 28 30 16 352 65 58 51 44 38 32 23 28 32 31 29
145 140 135 130 132 127 127 126 131 131 128 124 129 141 142 126 126 132 132 124 117 126 108 122 130 131 126 120 118 116 114 108 103 98 101 104 108 111 108 108 106 104 102 95 92 90 89 88 88 89 88 90 90 87 84 84 83 81 76 70 64 63 58 53 44 39 32 32 33 26 26 15 18 357 55 54 52 39 37 32 34 34 36 34 37
142 141 136 128 139 138 135 135 135 138 135 135 139 136 131 133 131 136 128 126 130 134 119 124 126 133 131 126 122 118 114 111 107 106 109 109 106 99 104 103 102 102 102 99 95 92 89 90 91 91 90 88 89 89 87 86 84 82 77 69 63 58 55 49 44 44 38 29 29 26 20 12 17 9 33 56 56 48 53 40 36 42 46 40 46
145 145 136 133 142 142 135 136 143 140 145 145 139 139 136 136 149 145 136 134 134 137 131 123 125 132 125 121 126 119 117 115 115 115 113 113 112 110 106 105 108 102 97 96 96 95 95 94 95 94 93 94 91 90 88 86 85 82 78 70 64 60 49 42 43 34 30 32 33 12 19 16 20 24 13 19 52 47 46 39 34 35 45 43 49
149 148 143 133 140 131 134 139 131 137 152 145 141 144 140 140 157 150 138 136 140 142 132 111 125 132 126 124 121 121 121 121 118 114 112 106 104 100 105 105 97 100 101 100 97 95 95 97 96 98 97 94 91 87 85 84 83 82 77 72 66 61 53 43 42 38 29 21 26 16 4 7 13 20 30 26 27 30 28 36 31 35 41 46 50
150 149 147 138 136 127 127 134 137 147 142 127 131 137 142 148 150 138 138 131 129 146 128 112 120 128 123 126 128 127 125 122 117 112 112 116 112 108 107 107 109 102 96 95 96 98 99 100 99 96 96 94 91 87 83 80 77 75 75 75 71 66 55 52 38 36 32 22 16 10 4 354 4 21 17 29 36 30 29 33 34 35 43 50 54
152 149 151 140 140 129 130 133 132 129 130 116 119 134 136 136 133 125 123 113 109 105 118 125 120 124 130 136 134 133 129 125 121 119 117 118 116 114 112 106 104 102 101 94 94 94 96 94 94 94 95 94 92 88 81 75 71 66 67 67 68 65 63 59 41 34 31 23 15 6 4 349 349 37 21 13 35 30 42 33 35 42 48 54 61
160 148 151 149 139 136 134 128 121 122 122 122 129 120 133 146 153 124 118 129 127 122 132 143 134 126 130 135 134 131 130 126 122 119 118 121 121 118 115 112 108 106 96 97 94 97 94 93 91 93 93 93 91 87 81 75 70 63 59 59 55 55 53 51 53 36 30 27 13 4 355 353 350 22 16 23 7 36 40 37 36 45 57 60 65
162 152 155 148 143 140 135 131 131 122 106 102 129 149 148 78 136 126 140 148 135 137 159 162 136 142 141 143 134 132 127 126 123 118 117 124 114 110 119 119 112 102 101 99 97 90 87 85 83 81 82 84 86 84 80 73 67 64 60 55 51 45 44 16 44 34 20 16 16 356 351 350 353 7 25 21 18 29 38 41 42 50 67 72 74
170 160 163 150 149 144 138 132 126 116 103 90 119 109 74 104 114 117 124 132 136 110 85 94 105 97 90 80 127 135 125 121 114 107 101 89 80 84 99 111 108 106 98 93 93 88 85 83 81 78 78 74 70 67 66 64 60 59 55 53 51 44 38 23 47 33 15 359 358 354 352 343 348 356 18 28 39 31 42 43 50 61 74 82 84
185 171 171 158 161 151 141 136 126 122 116 109 98 90 94 104 114 114 103 98 97 103 108 102 105 105 95 92 88 91 92 98 98 99 101 100 92 86 87 111 115 105 97 91 87 86 82 78 76 74 66 57 49 43 39 49 56 53 45 36 41 37 55 35 41 32 14 358 356 355 346 336 348 350 6 32 34 48 47 47 59 73 87 93 89
201 183 176 167 162 159 145 144 140 135 132 126 117 113 110 107 113 111 114 117 113 111 113 114 111 108 104 103 99 89 78 77 87 90 89 94 96 95 91 100 121 114 99 90 80 77 75 73 70 68 62 49 37 35 31 35 50 56 49 41 41 41 38 35 18 329 312 16 357 342 335 338 347 348 359 27 35 49 45 50 69 82 90 89 89
198 197 193 168 166 165 159 150 151 147 141 138 133 125 120 119 129 123 129 133 130 124 118 112 113 115 114 105 101 100 99 91 82 88 74 78 84 95 93 93 118 112 99 82 76 63 62 61 51 56 51 44 32 28 28 28 25 34 48 43 29 35 33 12 294 327 3 16 352 333 329 339 344 350 351 32 43 56 50 61 83 93 92 90 88
193 196 213 172 166 169 172 161 156 153 152 140 146 150 147 140 132 132 141 143 136 132 130 133 120 121 122 118 118 116 117 112 110 105 103 95 76 53 76 101 100 95 85 66 55 44 38 43 38 34 36 38 35 26 18 20 22 16 33 49 40 19 25 14 355 3 17 9 335 331 322 341 344 342 352 29 43 55 56 74 92 99 92 90 90
192 195 209 190 164 170 178 173 160 162 160 149 158 159 163 158 163 156 154 158 155 145 143 133 135 132 126 125 124 126 126 122 118 114 115 80 81 46 48 66 68 59 63 55 33 24 20 23 14 13 25 31 35 26 19 13 354 17 31 49 42 19 7 14 38 72 57 329 316 322 328 338 347 357 19 53 65 57 70 86 99 99 93 93 96
190 196 199 197 159 176 183 178 169 166 166 166 164 165 174 177 177 173 167 168 167 162 153 138 142 142 140 138 135 136 134 128 119 117 118 130 110 69 59 72 76 63 43 46 28 28 13 4 355 1 29 35 43 26 4 17 10 8 18 46 49 41 20 346 16 342 153 195 301 311 327 340 347 23 13 28 63 77 82 89 96 98 97 97 98
189 189 203 190 171 179 181 184 171 169 173 173 172 176 178 184 193 189 185 180 174 172 168 163 151 147 148 143 144 144 140 140 144 146 149 144 152 166 156 153 146 171 49 2 350 330 340 325 328 16 32 27 22 23 358 356 6 6 10 358 39 13 351 1 137 200 243 172 224 253 332 331 347 5 27 7 75 102 112 103 95 103 100 101 103
181 192 203 200 177 190 186 172 176 176 177 178 188 189 180 185 189 192 191 193 188 187 180 174 171 166 156 145 142 149 150 151 160 162 155 156 182 207 209 204 216 229 294 281 293 303 300 314 330 338 12 0 5 13 8 327 338 326 337 8 336 340 319 295 237 188 247 258 81 315 338 329 343 344 352 7 26 96 145 144 113 107 110 112 115
185 200 184 203 187 191 196 162 181 182 187 190 191 189 198 197 193 192 190 196 194 192 194 184 180 173 160 156 158 163 167 173 178 182 196 200 209 207 212 214 222 230 232 240 247 256 277 301 314 321 328 320 323 325 315 288 289 316 316 299 337 309 326 292 225 218 219 265 320 317 319 359 340 340 346 337 340 119 158 234 127 126 119 120 124
193 198 194 194 199 191 196 181 181 183 190 193 193 195 200 201 203 191 198 195 191 199 197 196 182 178 172 170 171 176 180 190 196 198 205 208 214 210 214 215 224 231 226 230 241 249 268 297 297 302 305 308 314 326 323 294 292 289 307 301 309 304 343 291 245 231 218 222 235 298 316 356 331 342 335 333 319 303 187 242 144 136 130 130 134
199 196 196 191 204 200 185 194 180 190 192 190 197 195 200 204 202 203 206 191 201 202 202 196 191 185 184 176 176 180 194 198 202 208 206 213 216 214 212 221 221 232 231 237 238 249 253 264 275 271 291 297 301 296 312 301 292 299 289 296 304 293 292 267 248 207 220 220 213 210 307 325 353 339 331 322 314 282 220 213 157 153 146 140 144
204 198 197 199 201 201 195 192 190 185 189 194 199 197 201 207 207 209 210 196 206 206 203 203 199 190 196 193 192 192 194 196 203 206 206 217 218 221 223 224 230 230 230 243 238 242 246 247 244 249 251 274 270 267 296 299 296 228 242 277 267 286 296 279 251 209 205 192 277 228 233 281 347 343 332 321 309 307 318 258 166 178 152 159 158
202 202 201 203 193 196 199 196 193 185 187 194 200 201 200 205 206 208 209 210 206 201 208 210 205 204 199 195 195 194 196 203 206 208 211 216 218 221 225 222 231 231 230 242 240 239 237 238 240 242 240 264 274 244 266 277 281 281 238 260 273 252 256 252 244 206 198 197 201 229 215 212 123 20 329 316 312 304 298 296 210 162 171 169 171
205 208 204 202 198 196 202 203 197 192 190 197 195 203 203 205 203 207 210 210 208 211 212 211 214 211 203 198 198 198 197 204 206 206 211 213 216 216 221 218 228 226 222 229 231 231 233 239 243 249 254 255 271 254 240 266 269 268 266 254 243 258 263 262 243 216 215 206 190 212 214 209 182 136 325 317 317 303 299 287 257 180 173 188 180
207 204 205 202 208 206 197 194 192 193 196 196 198 203 203 203 203 207 208 203 207 210 214 215 216 215 206 201 201 202 200 203 204 208 207 214 217 221 225 226 230 225 218 220 224 231 234 241 243 233 234 242 250 257 211 221 251 253 245 248 248 251 247 253 238 224 219 217 228 196 200 204 235 170 193 315 309 319 306 285 240 187 180 194 190
202 203 205 209 207 208 205 200 197 196 204 202 195 199 201 202 202 207 208 207 209 210 215 217 217 216 209 206 204 204 203 208 205 208 208 213 217 221 228 233 229 224 215 209 218 218 228 234 244 220 241 240 251 259 264 255 238 250 247 240 237 255 270 255 238 233 224 220 217 208 194 191 212 248 186 245 310 342 330 290 215 190 188 198 201
199 202 207 208 204 207 200 210 202 203 199 207 204 199 199 201 201 205 207 207 211 213 217 218 219 219 212 211 207 206 208 209 210 210 213 215 221 228 231 229 208 210 215 215 220 221 227 240 233 241 236 241 247 249 242 252 259 256 251 245 257 253 242 252 244 232 226 220 208 220 197 192 204 219 227 181 235 359 359 334 186 193 198 202 208
202 204 206 200 207 208 203 204 202 206 202 201 202 203 200 202 202 204 206 205 207 213 215 216 216 216 212 212 209 209 208 213 212 210 215 213 220 226 225 213 203 198 202 216 212 227 228 236 234 225 244 243 236 253 212 241 240 259 260 253 255 239 252 247 237 230 223 214 212 207 209 201 199 197 202 195 177 91 49 12 48 84 77 217 210
199 194 191 196 208 206 204 206 204 205 207 201 205 206 200 205 209 206 206 203 208 211 212 210 211 211 210 212 212 211 214 213 213 210 214 216 217 221 212 209 195 199 202 214 216 220 225 230 237 224 222 255 234 252 243 226 248 256 271 262 254 244 240 241 233 226 199 219 215 215 221 227 223 214 222 229 187 162 119 107 83 76 122 72 244
203 200 194 193 200 194 201 204 205 206 208 208 203 204 204 203 204 210 205 206 211 214 213 206 210 211 209 214 212 206 212 213 212 210 211 218 207 207 210 201 193 202 204 216 224 221 225 227 242 225 222 235 249 246 253 237 238 262 264 258 258 239 244 238 230 217 210 216 215 214 210 198 195 199 206 232 253 201 191 175 160 144 139 167 173
204 203 200 200 195 196 197 203 204 204 206 207 206 209 209 210 205 202 203 209 215 218 214 211 212 214 213 214 210 204 205 202 203 206 208 215 218 218 215 202 195 210 216 224 228 223 221 224 234 246 216 229 241 245 250 251 249 261 265 262 259 250 248 241 234 213 216 215 212 216 196 205 190 176 190 213 206 224 203 200 197 190 194 190 180
206 202 206 201 201 198 196 199 202 197 196 204 203 205 204 203 200 200 214 210 211 211 212 214 214 218 216 212 212 209 198 199 199 197 209 210 216 218 216 203 198 206 218 225 229 223 222 223 231 236 243 235 235 246 243 241 257 266 270 266 245 252 240 239 233 225 221 211 215 201 208 202 203 180 192 200 215 212 198 190 195 200 196 200 198
211 208 206 207 203 199 190 205 191 187 186 190 200 197 200 203 208 209 213 202 211 211 215 215 219 221 216 216 213 213 210 207 200 196 209 210 214 213 215 218 205 212 219 227 222 217 208 209 219 219 234 243 248 227 228 208 254 280 257 252 266 223 243 240 237 234 223 216 209 208 202 193 198 197 204 207 211 219 243 206 194 196 204 199 203
214 207 211 210 205 202 204 204 184 193 199 194 193 199 200 198 195 208 207 209 211 211 220 220 222 221 217 217 218 217 211 211 208 198 202 205 213 218 218 223 213 215 221 231 233 228 213 220 214 232 218 232 246 178 201 156 227 237 274 290 265 256 215 229 239 242 237 228 216 214 195 203 202 202 202 205 210 204 212 227 214 207 207 207 207
210 207 210 208 208 207 210 203 196 194 200 199 195 203 194 202 200 198 201 214 217 211 216 217 214 220 216 216 217 215 211 213 208 207 208 211 213 210 219 214 220 214 217 226 226 227 222 222 211 221 233 222 239 219 188 191 245 185 240 304 280 281 254 256 244 245 239 231 218 223 215 213 210 204 202 200 207 209 208 209 217 217 212 213 210
211 208 207 210 211 214 209 203 204 203 201 201 205 203 198 199 209 205 203 205 203 210 223 226 212 205 216 211 215 210 210 212 209 207 210 212 213 217 216 218 221 216 216 222 221 226 221 220 213 217 226 243 220 234 200 201 209 152 263 222 254 255 298 250 244 255 219 220 219 226 222 221 216 215 212 214 211 208 211 204 212 214 215 215 210
207 204 203 205 209 211 208 203 205 206 202 199 198 190 182 190 197 199 162 222 259 193 193 225 214 206 214 209 212 208 210 208 202 204 209 214 213 218 218 217 220 216 216 219 223 224 219 218 211 213 209 221 243 237 210 204 214 208 225 246 270 247 233 273 54 260 155 191 222 217 220 223 213 214 214 230 231 222 214 216 222 219 220 218 212
209 207 202 207 208 209 205 203 206 207 207 201 192 186 190 184 176 196 212 215 225 216 220 212 198 206 210 207 208 204 207 211 212 211 213 210 217 216 218 220 219 218 214 220 225 227 224 219 212 214 216 216 230 243 234 210 223 217 227 235 237 268 280 178 87 279 85 231 254 225 228 227 225 223 224 231 231 234 225 228 212 221 215 212 209
216 201 204 211 209 208 204 203 203 205 204 199 190 189 191 195 198 203 205 205 216 226 221 209 206 209 207 208 208 204 207 209 211 211 212 213 216 216 218 220 220 221 217 220 223 223 223 219 215 214 219 217 214 235 238 234 221 237 232 240 247 252 257 260 249 296 280 192 232 231 239 230 228 227 226 225 228 233 235 231 224 223 218 210 209
206 193 208 209 204 205 202 203 205 206 201 194 187 191 194 194 202 209 212 215 216 227 201 205 203 199 203 208 201 203 205 208 210 210 212 211 211 216 216 219 219 221 216 219 225 225 227 228 219 219 219 214 211 222 235 232 222 234 206 231 238 247 252 250 250 250 269 274 244 218 244 237 230 235 232 229 222 226 235 225 230 224 221 212 208
198 203 208 205 205 205 205 203 205 202 198 190 189 193 199 198 200 198 211 222 225 228 182 185 196 194 210 194 198 193 202 207 210 210 211 213 208 214 216 217 218 222 214 223 226 227 228 229 220 218 217 217 218 222 230 233 223 235 197 226 229 235 240 238 245 239 247 262 264 248 243 272 269 250 236 228 231 227 229 230 219 232 231 223 211
212 213 212 205 207 202 204 202 206 200 198 194 193 195 199 199 200 204 212 220 217 216 184 196 200 191 210 206 193 198 203 207 210 212 213 213 213 213 216 218 220 223 214 221 224 225 228 228 228 223 217 217 217 219 225 230 229 231 223 219 213 223 232 239 224 226 240 235 255 245 229 241 256 241 206 225 222 224 226 222 225 225 229 227 219
206 212 213 208 203 199 201 204 208 202 199 197 193 198 197 198 204 204 211 218 211 202 202 214 201 192 210 199 198 204 201 207 205 213 213 213 216 213 216 219 221 219 219 219 222 224 227 230 229 222 221 217 219 219 221 228 232 230 230 227 232 220 225 226 229 222 225 235 243 256 254 246 250 264 242 203 217 218 218 212 218 220 221 223 218